Station Historical Data
Daily Summary for April 18, 2017 Units:  Metric    English   Both
« Previous Day
Next Day »
Daily Weekly Monthly Yearly Custom
  High: Low: Average:
Temperature: 16.1 °C 0.8 °C 8.3 °C
Dew Point: 4.5 °C -1.4 °C 1.8 °C
Humidity: 87% 43% 66%
Wind Speed: 17.7km/h 0km/h 4.8km/h
Wind Gust: 20.9km/h - -
Wind- - ESE
Pressure: 1030.4 hPa 1023.6 hPa -
Precipitation: 0 mm    
Historical Graphs
 
 
Tabular Data for April 18, 2017
Time Temperature Dew Point Pressure Wind Wind Speed Wind Gust Humidity Rainfall Rate (Hourly)
00:04 4.3 °C 0.1 °C 1025.6 hPa North 3.2 km/h 9.7 km/h 74% 0 mm
00:09 4.2 °C 0 °C 1025.6 hPa North 4.8 km/h 11.3 km/h 74% 0 mm
00:14 4.2 °C -0.1 °C 1026 hPa NNE 1.6 km/h 8 km/h 74% 0 mm
00:19 4.1 °C -0.2 °C 1026 hPa NNE 4.8 km/h 6.4 km/h 74% 0 mm
00:24 4.1 °C -0.2 °C 1026 hPa North 1.6 km/h 8 km/h 74% 0 mm
00:29 3.9 °C -0.2 °C 1026.3 hPa NNW 4.8 km/h 6.4 km/h 75% 0 mm
00:34 3.8 °C -0.1 °C 1026.3 hPa NNW 3.2 km/h 8 km/h 76% 0 mm
00:39 3.7 °C 0 °C 1026.3 hPa NNW 4.8 km/h 9.7 km/h 77% 0 mm
00:44 3.6 °C -0.1 °C 1026.3 hPa NNW 3.2 km/h 9.7 km/h 77% 0 mm
00:49 3.4 °C -0.1 °C 1026.3 hPa NNW 1.6 km/h 8 km/h 78% 0 mm
00:54 3.3 °C -0.2 °C 1026.3 hPa NNW 1.6 km/h 6.4 km/h 78% 0 mm
00:59 3.1 °C -0.2 °C 1026.6 hPa NNW 3.2 km/h 4.8 km/h 79% 0 mm
01:04 3 °C -0.3 °C 1026.6 hPa NNW 1.6 km/h 4.8 km/h 79% 0 mm
01:09 2.9 °C -0.2 °C 1026.6 hPa NNW 1.6 km/h 8 km/h 80% 0 mm
01:14 2.9 °C -0.3 °C 1026.6 hPa North 3.2 km/h 8 km/h 79% 0 mm
01:19 2.9 °C -0.3 °C 1026.6 hPa North 3.2 km/h 8 km/h 79% 0 mm
01:24 2.9 °C -0.3 °C 1026.6 hPa NNW 3.2 km/h 8 km/h 79% 0 mm
01:29 2.9 °C -0.4 °C 1026.6 hPa NNE 3.2 km/h 6.4 km/h 79% 0 mm
01:34 2.8 °C -0.4 °C 1026.6 hPa NNW 3.2 km/h 6.4 km/h 79% 0 mm
01:39 2.7 °C -0.6 °C 1026.6 hPa North 3.2 km/h 6.4 km/h 79% 0 mm
01:44 2.6 °C -0.5 °C 1027 hPa NNW 3.2 km/h 6.4 km/h 80% 0 mm
01:49 2.5 °C -0.6 °C 1026.6 hPa NNW 3.2 km/h 4.8 km/h 80% 0 mm
01:54 2.4 °C -0.7 °C 1027 hPa North 6.4 km/h 8 km/h 80% 0 mm
01:59 2.4 °C -0.5 °C 1027 hPa North 3.2 km/h 6.4 km/h 81% 0 mm
02:04 2.4 °C -0.5 °C 1027 hPa North 1.6 km/h 6.4 km/h 81% 0 mm
02:09 2.3 °C -0.6 °C 1027 hPa Calm   3.2 km/h 81% 0 mm
02:14 2.2 °C -0.8 °C 1027 hPa Calm     81% 0 mm
02:19 2.1 °C -0.7 °C 1027 hPa Calm     82% 0 mm
02:29 2.1 °C -0.7 °C 1027 hPa Calm   6.4 km/h 82% 0 mm
02:34 2.1 °C -0.7 °C 1027 hPa NNW 3.2 km/h 8 km/h 82% 0 mm
02:39 2 °C -0.8 °C 1027 hPa NNW 3.2 km/h 6.4 km/h 82% 0 mm
02:44 1.9 °C -0.8 °C 1027 hPa NNW 1.6 km/h 3.2 km/h 82% 0 mm
02:49 1.9 °C -0.8 °C 1027 hPa Calm   3.2 km/h 82% 0 mm
02:54 1.7 °C -0.8 °C 1027 hPa Calm   3.2 km/h 83% 0 mm
02:59 1.6 °C -0.9 °C 1027 hPa Calm     83% 0 mm
03:04 1.4 °C -1.1 °C 1027 hPa Calm   4.8 km/h 83% 0 mm
03:09 1.6 °C -0.8 °C 1027 hPa NNW 1.6 km/h 6.4 km/h 84% 0 mm
03:14 1.6 °C -0.8 °C 1027 hPa NNW 1.6 km/h 6.4 km/h 84% 0 mm
03:19 1.5 °C -0.9 °C 1027 hPa NNW 1.6 km/h 3.2 km/h 84% 0 mm
03:24 1.4 °C -0.9 °C 1027.3 hPa Calm     84% 0 mm
03:29 1.3 °C -1.1 °C 1027.3 hPa Calm   1.6 km/h 84% 0 mm
03:34 1.3 °C -1.1 °C 1027.3 hPa Calm     84% 0 mm
03:39 1.2 °C -1.1 °C 1027.3 hPa Calm   3.2 km/h 85% 0 mm
03:44 1.2 °C -1.1 °C 1027.3 hPa Calm   3.2 km/h 85% 0 mm
03:49 1.1 °C -1.2 °C 1027.7 hPa Calm     85% 0 mm
03:54 1 °C -1.2 °C 1027.7 hPa Calm     85% 0 mm
03:59 1.1 °C -1.2 °C 1027.7 hPa Calm   3.2 km/h 85% 0 mm
04:04 1.1 °C -1.2 °C 1027.7 hPa Calm   3.2 km/h 85% 0 mm
04:09 0.8 °C -1.4 °C 1027.7 hPa Calm   3.2 km/h 85% 0 mm
04:14 0.9 °C -1.2 °C 1027.7 hPa Calm     86% 0 mm
04:19 1.1 °C -1 °C 1027.7 hPa NNW 3.2 km/h 4.8 km/h 86% 0 mm
04:24 1 °C -1.1 °C 1027.7 hPa NNW 3.2 km/h 4.8 km/h 86% 0 mm
04:29 1.1 °C -1 °C 1027.7 hPa Calm   4.8 km/h 86% 0 mm
04:34 1 °C -1.1 °C 1027.7 hPa NNW 1.6 km/h 4.8 km/h 86% 0 mm
04:39 1.1 °C -1 °C 1027.7 hPa Calm   4.8 km/h 86% 0 mm
04:44 1.2 °C -0.9 °C 1027.7 hPa NNW 3.2 km/h 4.8 km/h 86% 0 mm
04:49 1.2 °C -0.9 °C 1027.7 hPa NNW 1.6 km/h 4.8 km/h 86% 0 mm
04:54 1.2 °C -0.9 °C 1028 hPa NNW 1.6 km/h 4.8 km/h 86% 0 mm
04:59 1.2 °C -0.9 °C 1028 hPa NNW 1.6 km/h 4.8 km/h 86% 0 mm
05:04 1.1 °C -0.9 °C 1028 hPa NNW 1.6 km/h 3.2 km/h 86% 0 mm
05:09 1.1 °C -0.8 °C 1027.7 hPa NNW 1.6 km/h 4.8 km/h 87% 0 mm
05:14 1.1 °C -0.8 °C 1028 hPa NNW 3.2 km/h 4.8 km/h 87% 0 mm
05:19 1.1 °C -0.9 °C 1028 hPa North 1.6 km/h 4.8 km/h 87% 0 mm
05:24 1.1 °C -0.9 °C 1028 hPa North 3.2 km/h 4.8 km/h 87% 0 mm
05:29 1.1 °C -0.8 °C 1028 hPa North 3.2 km/h 4.8 km/h 87% 0 mm
05:34 1.1 °C -0.9 °C 1028 hPa NNE 3.2 km/h 9.7 km/h 87% 0 mm
05:39 1.1 °C -0.9 °C 1028 hPa NE 3.2 km/h 9.7 km/h 86% 0 mm
05:44 1.1 °C -0.9 °C 1028 hPa NE 3.2 km/h 8 km/h 86% 0 mm
05:49 1.1 °C -1 °C 1028 hPa NE 3.2 km/h 8 km/h 86% 0 mm
05:54 1.1 °C -1 °C 1028 hPa NE 3.2 km/h 6.4 km/h 86% 0 mm
05:59 1 °C -1.1 °C 1028.3 hPa ENE 3.2 km/h 6.4 km/h 86% 0 mm
06:04 1.1 °C -1 °C 1028.3 hPa NE 4.8 km/h 6.4 km/h 86% 0 mm
06:09 1.1 °C -0.9 °C 1028.3 hPa NE 3.2 km/h 8 km/h 86% 0 mm
06:14 1.1 °C -1 °C 1028.3 hPa NE 3.2 km/h 8 km/h 86% 0 mm
06:19 1.1 °C -1 °C 1028.3 hPa NE 1.6 km/h 6.4 km/h 86% 0 mm
06:24 1 °C -1.1 °C 1028.7 hPa NE 3.2 km/h 6.4 km/h 86% 0 mm
06:29 1 °C -1.1 °C 1028.7 hPa NE 1.6 km/h 4.8 km/h 86% 0 mm
06:34 0.9 °C -1.1 °C 1028.7 hPa NE 1.6 km/h 4.8 km/h 86% 0 mm
06:39 0.9 °C -1.1 °C 1028.7 hPa Calm   3.2 km/h 86% 0 mm
06:44 0.9 °C -1.1 °C 1029 hPa NE 1.6 km/h 4.8 km/h 86% 0 mm
06:49 1 °C -1.1 °C 1029 hPa NE 6.4 km/h 6.4 km/h 86% 0 mm
06:54 1.1 °C -0.9 °C 1029 hPa NE 1.6 km/h 6.4 km/h 86% 0 mm
06:59 1.2 °C -0.9 °C 1029 hPa NE 3.2 km/h 6.4 km/h 86% 0 mm
07:04 1.3 °C -0.8 °C 1029 hPa NE 4.8 km/h 4.8 km/h 86% 0 mm
07:09 1.4 °C -0.8 °C 1029 hPa Calm   6.4 km/h 85% 0 mm
07:14 1.6 °C -0.7 °C 1029.3 hPa NE 3.2 km/h 8 km/h 85% 0 mm
07:19 1.8 °C -0.5 °C 1029.3 hPa ENE 6.4 km/h 6.4 km/h 85% 0 mm
07:24 2.1 °C -0.4 °C 1029.3 hPa NE 4.8 km/h 11.3 km/h 84% 0 mm
07:29 2.2 °C -0.4 °C 1029.3 hPa NE 6.4 km/h 12.9 km/h 83% 0 mm
07:34 2.4 °C -0.2 °C 1029.3 hPa NE 6.4 km/h 12.9 km/h 83% 0 mm
07:39 2.6 °C -0.2 °C 1029.3 hPa NE 6.4 km/h 14.5 km/h 82% 0 mm
07:44 2.8 °C -0.2 °C 1029.3 hPa NE 9.7 km/h 14.5 km/h 81% 0 mm
07:49 2.9 °C -0.2 °C 1029.3 hPa NE 9.7 km/h 14.5 km/h 80% 0 mm
07:54 3.2 °C -0.1 °C 1029.3 hPa ENE 6.4 km/h 14.5 km/h 79% 0 mm
07:59 3.4 °C -0.1 °C 1029.7 hPa ENE 6.4 km/h 16.1 km/h 78% 0 mm
08:04 3.6 °C -0.1 °C 1029.7 hPa ENE 6.4 km/h 16.1 km/h 77% 0 mm
08:09 3.6 °C -0.1 °C 1029.7 hPa East 8 km/h 16.1 km/h 77% 0 mm
08:14 3.9 °C 0.1 °C 1029.7 hPa East 4.8 km/h 12.9 km/h 76% 0 mm
08:19 4.1 °C 0.3 °C 1030 hPa ENE 6.4 km/h 16.1 km/h 76% 0 mm
08:24 4.3 °C 0.3 °C 1029.7 hPa ENE 6.4 km/h 16.1 km/h 75% 0 mm
08:29 4.6 °C 0.5 °C 1029.7 hPa SE 8 km/h 11.3 km/h 75% 0 mm
08:34 4.7 °C 0.6 °C 1029.7 hPa ENE 3.2 km/h 12.9 km/h 75% 0 mm
08:39 4.8 °C 0.8 °C 1029.7 hPa ENE 11.3 km/h 19.3 km/h 75% 0 mm
08:44 5 °C 0.7 °C 1029.7 hPa NE 6.4 km/h 12.9 km/h 74% 0 mm
08:49 5.1 °C 0.8 °C 1030 hPa East 8 km/h 14.5 km/h 74% 0 mm
08:54 5.2 °C 0.9 °C 1030 hPa East 6.4 km/h 14.5 km/h 74% 0 mm
08:59 5.4 °C 1 °C 1030 hPa ENE 6.4 km/h 12.9 km/h 73% 0 mm
09:04 5.9 °C 1.4 °C 1030 hPa SE 3.2 km/h 9.7 km/h 73% 0 mm
09:09 5.9 °C 1.4 °C 1030 hPa East 4.8 km/h 12.9 km/h 73% 0 mm
09:14 6.2 °C 1.5 °C 1030 hPa ENE 4.8 km/h 12.9 km/h 72% 0 mm
09:19 5.8 °C 1.2 °C 1030 hPa ENE 6.4 km/h 14.5 km/h 72% 0 mm
09:24 6.3 °C 1.8 °C 1030 hPa ENE 6.4 km/h 14.5 km/h 73% 0 mm
09:29 6.3 °C 1.6 °C 1030 hPa ENE 11.3 km/h 16.1 km/h 72% 0 mm
09:34 6.4 °C 1.5 °C 1030 hPa NE 8 km/h 16.1 km/h 71% 0 mm
09:39 6.7 °C 1.8 °C 1030 hPa NE 8 km/h 14.5 km/h 71% 0 mm
09:44 6.7 °C 1.6 °C 1030.4 hPa SE 6.4 km/h 17.7 km/h 70% 0 mm
09:49 6.6 °C 1.5 °C 1030.4 hPa ENE 6.4 km/h 17.7 km/h 70% 0 mm
09:54 6.9 °C 1.8 °C 1030.4 hPa ENE 6.4 km/h 14.5 km/h 70% 0 mm
09:59 7.2 °C 2.1 °C 1030 hPa ENE 6.4 km/h 14.5 km/h 70% 0 mm
10:04 7.4 °C 1.7 °C 1030 hPa ENE 6.4 km/h 12.9 km/h 67% 0 mm
10:09 7.3 °C 1.6 °C 1030 hPa ENE 11.3 km/h 16.1 km/h 67% 0 mm
10:14 7.5 °C 2.2 °C 1030 hPa NNE 3.2 km/h 16.1 km/h 69% 0 mm
10:19 7.7 °C 2.1 °C 1030 hPa NE 8 km/h 16.1 km/h 68% 0 mm
10:24 7.8 °C 2.1 °C 1030.4 hPa East 9.7 km/h 14.5 km/h 67% 0 mm
10:29 8.3 °C 2.8 °C 1030 hPa South 3.2 km/h 19.3 km/h 68% 0 mm
10:34 8.3 °C 2.1 °C 1030.4 hPa ENE 12.9 km/h 16.1 km/h 65% 0 mm
10:39 8.2 °C 2 °C 1030 hPa NE 8 km/h 12.9 km/h 65% 0 mm
10:44 8.2 °C 2 °C 1030 hPa ENE 8 km/h 14.5 km/h 65% 0 mm
10:49 8.3 °C 1.9 °C 1030.4 hPa NE 8 km/h 14.5 km/h 64% 0 mm
10:54 8.3 °C 1.9 °C 1030.4 hPa NE 6.4 km/h 12.9 km/h 64% 0 mm
10:59 8.8 °C 2.3 °C 1030.4 hPa NNE 4.8 km/h 12.9 km/h 64% 0 mm
11:04 9.1 °C 2.2 °C 1030.4 hPa NE 9.7 km/h 14.5 km/h 62% 0 mm
11:09 9.1 °C 2.4 °C 1030.4 hPa East 1.6 km/h 11.3 km/h 63% 0 mm
11:14 9.2 °C 2.1 °C 1030.4 hPa ENE 6.4 km/h 17.7 km/h 61% 0 mm
11:19 9.3 °C 2.1 °C 1030.4 hPa ENE 6.4 km/h 17.7 km/h 61% 0 mm
11:24 9.5 °C 2.6 °C 1030.4 hPa NE 1.6 km/h 12.9 km/h 62% 0 mm
11:29 9.4 °C 2.7 °C 1030.4 hPa NNE 4.8 km/h 9.7 km/h 63% 0 mm
11:34 9.8 °C 2.4 °C 1030.4 hPa East 3.2 km/h 14.5 km/h 60% 0 mm
11:39 10.1 °C 2.7 °C 1030 hPa NE 6.4 km/h 14.5 km/h 60% 0 mm
11:44 10.4 °C 2.8 °C 1030 hPa NE 4.8 km/h 14.5 km/h 59% 0 mm
11:49 10.3 °C 2.6 °C 1030 hPa East 8 km/h 11.3 km/h 59% 0 mm
11:54 10.6 °C 2.9 °C 1029.7 hPa NE 11.3 km/h 12.9 km/h 59% 0 mm
11:59 10.6 °C 3.3 °C 1029.7 hPa NNE 4.8 km/h 11.3 km/h 61% 0 mm
12:04 10.7 °C 3.4 °C 1029.7 hPa NE 3.2 km/h 14.5 km/h 61% 0 mm
12:09 10.8 °C 3.1 °C 1029.7 hPa ENE 6.4 km/h 14.5 km/h 59% 0 mm
12:14 10.6 °C 3.2 °C 1029.7 hPa ENE 6.4 km/h 14.5 km/h 60% 0 mm
12:19 11.1 °C 3.2 °C 1029.7 hPa SSE 8 km/h 14.5 km/h 58% 0 mm
12:24 11.4 °C 2.1 °C 1029.3 hPa NE 6.4 km/h 14.5 km/h 53% 0 mm
12:29 11.3 °C 2.6 °C 1029.3 hPa NE 6.4 km/h 16.1 km/h 55% 0 mm
12:34 11.1 °C 2.6 °C 1029.3 hPa ENE 3.2 km/h 19.3 km/h 56% 0 mm
12:39 11.2 °C 3.5 °C 1029.3 hPa NNE 9.7 km/h 17.7 km/h 59% 0 mm
12:44 11.4 °C 3.4 °C 1029.3 hPa NNE 4.8 km/h 14.5 km/h 58% 0 mm
12:49 11.7 °C 3.2 °C 1029.3 hPa ESE 6.4 km/h 19.3 km/h 56% 0 mm
12:54 11.7 °C 3.7 °C 1029 hPa NE 1.6 km/h 9.7 km/h 58% 0 mm
12:59 12.3 °C 2.9 °C 1029 hPa ENE 4.8 km/h 12.9 km/h 53% 0 mm
13:04 11.9 °C 2.7 °C 1029 hPa NE 4.8 km/h 14.5 km/h 53% 0 mm
13:09 11.9 °C 3.4 °C 1029 hPa NE 6.4 km/h 16.1 km/h 56% 0 mm
13:14 12.5 °C 3.2 °C 1029 hPa ENE 8 km/h 16.1 km/h 53% 0 mm
13:19 12.3 °C 2.2 °C 1029 hPa NNE 6.4 km/h 14.5 km/h 50% 0 mm
13:24 12.3 °C 3.7 °C 1029 hPa NNW 3.2 km/h 9.7 km/h 56% 0 mm
13:29 12.8 °C 2.9 °C 1028.7 hPa SSE 4.8 km/h 19.3 km/h 51% 0 mm
13:34 12.8 °C 3.7 °C 1028.7 hPa ENE 6.4 km/h 19.3 km/h 54% 0 mm
13:39 12.5 °C 2.9 °C 1028.7 hPa NE 6.4 km/h 12.9 km/h 52% 0 mm
13:44 13.6 °C 4.4 °C 1028.7 hPa ENE 14.5 km/h 14.5 km/h 54% 0 mm
13:49 13.1 °C 2.9 °C 1028.7 hPa NE 1.6 km/h 20.9 km/h 50% 0 mm
13:54 13.2 °C 3.8 °C 1028.3 hPa NE 17.7 km/h 20.9 km/h 53% 0 mm
13:59 12.9 °C 3.6 °C 1028.3 hPa NE 8 km/h 20.9 km/h 53% 0 mm
14:04 13.6 °C 3.9 °C 1028.3 hPa NE 9.7 km/h 17.7 km/h 52% 0 mm
14:09 13.7 °C 4 °C 1028.3 hPa NE 16.1 km/h 16.1 km/h 52% 0 mm
14:14 13.6 °C 3.7 °C 1028.3 hPa ENE 4.8 km/h 16.1 km/h 51% 0 mm
14:19 14.2 °C 4.5 °C 1028.3 hPa ESE 4.8 km/h 11.3 km/h 52% 0 mm
14:24 13.9 °C 3.1 °C 1028.3 hPa ENE 6.4 km/h 16.1 km/h 48% 0 mm
14:29 13.6 °C 3.1 °C 1028 hPa ENE 6.4 km/h 16.1 km/h 49% 0 mm
14:34 14.2 °C 4.2 °C 1028.3 hPa ENE 6.4 km/h 14.5 km/h 51% 0 mm
14:39 14.2 °C 3.9 °C 1028.3 hPa NE 6.4 km/h 17.7 km/h 50% 0 mm
14:44 14.2 °C 4.2 °C 1028.3 hPa ENE 3.2 km/h 12.9 km/h 51% 0 mm
14:49 14.7 °C 4.4 °C 1028.3 hPa NNE 8 km/h 9.7 km/h 50% 0 mm
14:54 14.7 °C 2.8 °C 1028 hPa NE 4.8 km/h 14.5 km/h 45% 0 mm
14:59 14.5 °C 3.9 °C 1028 hPa ENE 6.4 km/h 16.1 km/h 49% 0 mm
15:04 14.3 °C 3.8 °C 1028 hPa NNE 6.4 km/h 11.3 km/h 49% 0 mm
15:09 14.6 °C 3.7 °C 1028 hPa ENE 3.2 km/h 8 km/h 48% 0 mm
15:14 14.8 °C 3.6 °C 1028 hPa NE 3.2 km/h 9.7 km/h 47% 0 mm
15:19 14.6 °C 3.1 °C 1028 hPa North 6.4 km/h 12.9 km/h 46% 0 mm
15:24 14.8 °C 3.6 °C 1027.7 hPa NNE 4.8 km/h 12.9 km/h 47% 0 mm
15:29 15 °C 2.8 °C 1027.7 hPa NNE 4.8 km/h 9.7 km/h 44% 0 mm
15:34 15.2 °C 3.3 °C 1027.7 hPa ENE 4.8 km/h 12.9 km/h 45% 0 mm
15:39 14.9 °C 3.1 °C 1027.7 hPa North 6.4 km/h 14.5 km/h 45% 0 mm
15:44 14.8 °C 3.9 °C 1027.7 hPa North 3.2 km/h 9.7 km/h 48% 0 mm
15:49 14.9 °C 3.7 °C 1027.3 hPa ESE 1.6 km/h 9.7 km/h 47% 0 mm
15:54 15 °C 2.8 °C 1027.3 hPa North 8 km/h 11.3 km/h 44% 0 mm
15:59 15.3 °C 3.1 °C 1027.3 hPa ENE 8 km/h 11.3 km/h 44% 0 mm
16:04 15.3 °C 3.8 °C 1027.3 hPa North 6.4 km/h 12.9 km/h 46% 0 mm
16:09 15.3 °C 3.1 °C 1027.3 hPa NE 4.8 km/h 11.3 km/h 44% 0 mm
16:14 15.7 °C 3.1 °C 1027 hPa NNE 6.4 km/h 8 km/h 43% 0 mm
16:19 15.7 °C 4.1 °C 1027 hPa NE 3.2 km/h 12.9 km/h 46% 0 mm
16:24 15.4 °C 3.2 °C 1027 hPa NE 6.4 km/h 12.9 km/h 44% 0 mm
16:29 15.4 °C 3.5 °C 1027 hPa NE 9.7 km/h 12.9 km/h 45% 0 mm
16:34 15.4 °C 3.9 °C 1026.6 hPa WNW 1.6 km/h 16.1 km/h 46% 0 mm
16:39 16.1 °C 4.2 °C 1026.6 hPa NE 6.4 km/h 8 km/h 45% 0 mm
16:44 15.8 °C 3.9 °C 1026.6 hPa NE 11.3 km/h 17.7 km/h 45% 0 mm
16:49 15.6 °C 3.7 °C 1026.6 hPa NE 6.4 km/h 17.7 km/h 45% 0 mm
16:54 15.7 °C 3.8 °C 1026.6 hPa NE 6.4 km/h 16.1 km/h 45% 0 mm
16:59 15.5 °C 3.9 °C 1026.6 hPa NE 6.4 km/h 16.1 km/h 46% 0 mm
17:04 15.8 °C 4.2 °C 1026.3 hPa NNW 9.7 km/h 11.3 km/h 46% 0 mm
17:09 15.8 °C 3.2 °C 1026.3 hPa NE 4.8 km/h 14.5 km/h 43% 0 mm
17:14 15.8 °C 3.6 °C 1026.3 hPa ESE 3.2 km/h 9.7 km/h 44% 0 mm
17:19 15.8 °C 3.6 °C 1026.3 hPa ENE 4.8 km/h 16.1 km/h 44% 0 mm
17:24 15.7 °C 4.1 °C 1026.3 hPa NE 6.4 km/h 16.1 km/h 46% 0 mm
17:29 15.6 °C 3.7 °C 1026.3 hPa NE 6.4 km/h 12.9 km/h 45% 0 mm
17:34 15.8 °C 3.6 °C 1026.3 hPa NE 8 km/h 9.7 km/h 44% 0 mm
17:39 15.8 °C 3.8 °C 1026.3 hPa NE 9.7 km/h 12.9 km/h 45% 0 mm
17:44 15.6 °C 3.4 °C 1026.3 hPa NE 6.4 km/h 14.5 km/h 44% 0 mm
17:49 15.5 °C 3.6 °C 1026.3 hPa NE 6.4 km/h 14.5 km/h 45% 0 mm
17:54 15.3 °C 3.8 °C 1026.3 hPa NNE 4.8 km/h 12.9 km/h 46% 0 mm
17:59 15.4 °C 3.6 °C 1026.3 hPa NNE 4.8 km/h 9.7 km/h 45% 0 mm
18:04 15.4 °C 3.6 °C 1026.3 hPa NNE 4.8 km/h 9.7 km/h 45% 0 mm
18:09 15.3 °C 3.4 °C 1026.3 hPa NNE 6.4 km/h 12.9 km/h 45% 0 mm
18:14 15.3 °C 3.4 °C 1026.3 hPa NE 4.8 km/h 11.3 km/h 45% 0 mm
18:19 15.2 °C 3.3 °C 1026 hPa ENE 4.8 km/h 14.5 km/h 45% 0 mm
18:24 15.1 °C 2.9 °C 1026 hPa NE 3.2 km/h 12.9 km/h 44% 0 mm
18:29 15 °C 3.2 °C 1026 hPa NE 6.4 km/h 14.5 km/h 45% 0 mm
18:34 14.9 °C 3.4 °C 1026 hPa NE 6.4 km/h 11.3 km/h 46% 0 mm
18:39 14.7 °C 3.2 °C 1025.6 hPa ENE 11.3 km/h 14.5 km/h 46% 0 mm
18:44 14.6 °C 3.4 °C 1025.6 hPa NE 8 km/h 14.5 km/h 47% 0 mm
18:49 14.5 °C 3.3 °C 1025.6 hPa NE 6.4 km/h 14.5 km/h 47% 0 mm
18:54 14.4 °C 3.6 °C 1025.6 hPa NE 6.4 km/h 16.1 km/h 48% 0 mm
18:59 14.3 °C 4.1 °C 1025.6 hPa NE 6.4 km/h 16.1 km/h 50% 0 mm
19:04 14.1 °C 4.1 °C 1025.6 hPa NNE 4.8 km/h 8 km/h 51% 0 mm
19:09 13.9 °C 3.9 °C 1025.3 hPa NE 6.4 km/h 11.3 km/h 51% 0 mm
19:14 13.9 °C 4.4 °C 1025.3 hPa NE 9.7 km/h 12.9 km/h 53% 0 mm
19:19 13.7 °C 4.3 °C 1025.3 hPa NE 6.4 km/h 19.3 km/h 53% 0 mm
19:24 13.4 °C 4.3 °C 1025.3 hPa NE 8 km/h 19.3 km/h 54% 0 mm
19:29 13.3 °C 4.2 °C 1025.3 hPa NE 8 km/h 17.7 km/h 54% 0 mm
19:34 13.2 °C 4.3 °C 1024.9 hPa NE 8 km/h 17.7 km/h 55% 0 mm
19:39 13.1 °C 4.2 °C 1024.9 hPa NE 12.9 km/h 17.7 km/h 55% 0 mm
19:44 12.9 °C 4.1 °C 1024.9 hPa NE 8 km/h 17.7 km/h 55% 0 mm
19:49 12.9 °C 4.1 °C 1024.9 hPa ENE 6.4 km/h 14.5 km/h 55% 0 mm
19:54 12.9 °C 4.1 °C 1024.9 hPa NNE 3.2 km/h 12.9 km/h 55% 0 mm
19:59 12.8 °C 4.3 °C 1024.9 hPa NE 3.2 km/h 12.9 km/h 56% 0 mm
20:04 12.7 °C 4.1 °C 1024.9 hPa NE 4.8 km/h 11.3 km/h 56% 0 mm
20:09 12.6 °C 4.3 °C 1025.3 hPa NE 6.4 km/h 16.1 km/h 57% 0 mm
20:14 12.4 °C 4.2 °C 1025.3 hPa NE 6.4 km/h 16.1 km/h 57% 0 mm
20:19 12.4 °C 3.8 °C 1024.9 hPa NE 6.4 km/h 16.1 km/h 56% 0 mm
20:24 12.2 °C 3.7 °C 1024.9 hPa NE 6.4 km/h 16.1 km/h 56% 0 mm
20:29 12.2 °C 3.7 °C 1024.9 hPa East 4.8 km/h 12.9 km/h 56% 0 mm
20:34 12.1 °C 3.8 °C 1024.9 hPa NE 11.3 km/h 12.9 km/h 57% 0 mm
20:39 11.9 °C 3.4 °C 1024.9 hPa ENE 6.4 km/h 14.5 km/h 56% 0 mm
20:44 11.8 °C 3.3 °C 1024.9 hPa NE 6.4 km/h 16.1 km/h 56% 0 mm
20:49 11.8 °C 3.3 °C 1024.9 hPa ENE 6.4 km/h 12.9 km/h 56% 0 mm
20:54 11.7 °C 3.4 °C 1024.9 hPa ENE 3.2 km/h 12.9 km/h 57% 0 mm
20:59 11.6 °C 3.4 °C 1024.9 hPa East 8 km/h 11.3 km/h 57% 0 mm
21:04 11.4 °C 3.4 °C 1025.3 hPa ENE 4.8 km/h 12.9 km/h 58% 0 mm
21:09 11.3 °C 3.3 °C 1025.3 hPa ENE 3.2 km/h 12.9 km/h 58% 0 mm
21:14 11.3 °C 3.3 °C 1025.3 hPa East 4.8 km/h 12.9 km/h 58% 0 mm
21:19 11.2 °C 3.2 °C 1025.3 hPa ENE 6.4 km/h 12.9 km/h 58% 0 mm
21:24 11.2 °C 3.4 °C 1025.6 hPa NE 3.2 km/h 12.9 km/h 59% 0 mm
21:29 11.1 °C 3.3 °C 1025.6 hPa ENE 3.2 km/h 11.3 km/h 59% 0 mm
21:34 10.9 °C 3.4 °C 1025.6 hPa ENE 4.8 km/h 11.3 km/h 60% 0 mm
21:39 10.9 °C 3.4 °C 1025.6 hPa ENE 4.8 km/h 12.9 km/h 60% 0 mm
21:44 10.8 °C 3.4 °C 1025.3 hPa ENE 6.4 km/h 12.9 km/h 60% 0 mm
21:49 10.7 °C 3.3 °C 1025.3 hPa East 4.8 km/h 12.9 km/h 60% 0 mm
21:54 10.7 °C 3.2 °C 1025.3 hPa East 1.6 km/h 14.5 km/h 60% 0 mm
21:59 10.5 °C 3.3 °C 1024.9 hPa East 3.2 km/h 8 km/h 61% 0 mm
22:04 10.4 °C 3.2 °C 1024.9 hPa East 4.8 km/h 12.9 km/h 61% 0 mm
22:09 10.3 °C 3.3 °C 1024.9 hPa ENE 6.4 km/h 9.7 km/h 62% 0 mm
22:14 10.2 °C 3.5 °C 1024.9 hPa East 4.8 km/h 11.3 km/h 63% 0 mm
22:19 10.2 °C 3.2 °C 1024.9 hPa ENE 4.8 km/h 9.7 km/h 62% 0 mm
22:24 10.2 °C 3.4 °C 1024.6 hPa East 3.2 km/h 8 km/h 63% 0 mm
22:29 10.1 °C 3.4 °C 1024.6 hPa East 3.2 km/h 8 km/h 63% 0 mm
22:34 10.1 °C 3.3 °C 1024.3 hPa East 3.2 km/h 9.7 km/h 63% 0 mm
22:39 10.1 °C 3.3 °C 1024.3 hPa East 3.2 km/h 9.7 km/h 63% 0 mm
22:44 10.1 °C 3.3 °C 1024.3 hPa East 3.2 km/h 8 km/h 63% 0 mm
22:49 10 °C 3.5 °C 1024.3 hPa East 3.2 km/h 8 km/h 64% 0 mm
22:54 9.9 °C 3.4 °C 1024.3 hPa East 3.2 km/h 8 km/h 64% 0 mm
22:59 9.9 °C 3.4 °C 1024.3 hPa East 3.2 km/h 11.3 km/h 64% 0 mm
23:04 9.9 °C 3.4 °C 1023.9 hPa East 1.6 km/h 12.9 km/h 64% 0 mm
23:09 9.8 °C 3.3 °C 1023.9 hPa SE 3.2 km/h 8 km/h 64% 0 mm
23:14 9.7 °C 3.4 °C 1023.9 hPa ESE 1.6 km/h 4.8 km/h 65% 0 mm
23:19 9.7 °C 3.4 °C 1023.9 hPa ENE 3.2 km/h 8 km/h 65% 0 mm
23:24 9.7 °C 3.4 °C 1023.9 hPa East 1.6 km/h 8 km/h 65% 0 mm
23:29 9.6 °C 3.3 °C 1023.9 hPa ESE 3.2 km/h 4.8 km/h 65% 0 mm
23:34 9.6 °C 3.3 °C 1023.9 hPa ESE 1.6 km/h 4.8 km/h 65% 0 mm
23:39 9.6 °C 3.3 °C 1023.6 hPa Calm   4.8 km/h 65% 0 mm
23:44 9.6 °C 3.6 °C 1023.6 hPa Calm   1.6 km/h 66% 0 mm
23:49 9.6 °C 3.3 °C 1023.6 hPa Calm   3.2 km/h 65% 0 mm
23:54 9.5 °C 3.4 °C 1023.6 hPa Calm   3.2 km/h 66% 0 mm
23:59 9.4 °C 3.4 °C 1023.6 hPa Calm   3.2 km/h 66% 0 mm
Buffalo, New York, USA
Compliments of Weather Underground - 2.5 mb